{"data":{"norad_id":66918,"epoch":"2026-05-24T22:05:23.070624Z","epoch_age_seconds":92125,"freshness":"FRESH","line1":"1 66918U 25285D   26144.92040591 -.00000103  00000+0  44624-4 0  9997","line2":"2 66918  50.0046 229.4424 0001049 212.3791 147.7017 13.29325263 22965","mean_motion":13.29325263,"eccentricity":0.0001049,"inclination_deg":50.0046,"raan_deg":229.4424,"arg_perigee_deg":212.3791,"mean_anomaly_deg":147.7017,"bstar":4.4624e-5,"rev_number":2296,"period_min":108.32563256567,"perigee_km":1148.5197249575,"apogee_km":1150.0989832025,"semimajor_km":7527.44635408,"source":"CELESTRAK","updated_at":"2026-05-25T13:38:06.594087Z"}}